Erwin, NC

9:29 PM EDT on July 23, 2017 (GMT -0400)
Harnett County

Weather History for KHRJ - May, 2014

Change the Weather History Date:

Tuesday, May 13, 2014

  Actual Average Record
Temperature  
Mean Temperature 79 °F -  
Max Temperature 90 °F 80 °F 95 °F (2000)
Min Temperature 68 °F 57 °F 42 °F (1989)
Cooling Degree Days 14    
Growing Degree Days 29 (Base 50)    
Moisture  
Dew Point 65 °F    
Average Humidity 65    
Maximum Humidity 100    
Minimum Humidity 33    
Precipitation  
Precipitation 0.15 in - - ()
Sea Level Pressure  
Sea Level Pressure 30.13 in    
Wind  
Wind Speed 3 mph (South)    
Max Wind Speed 9 mph    
Max Gust Speed -    
Visibility 9 miles    
Events      
Averages and records for this station are not official NWS values.
T = Trace of Precipitation, MM = Missing Value Source: NWS Daily Summary

Daily Weather History Graph

Daily Weather History Graph

Search for Another Location

Airport or City:

Trip Planner

Search our weather history database for the weather conditions in past years. The results will help you decide how hot, cold, wet, or windy it might be!

Date:

Astronomy

May. 13, 2014 Rise Set
Actual Time 6:12 AM EDT 8:10 PM EDT
Civil Twilight 5:44 AM EDT 8:39 PM EDT
Nautical Twilight 5:09 AM EDT 9:13 PM EDT
Astronomical Twilight 4:33 AM EDT 9:49 PM EDT
Moon 7:12 PM EDT (5/13) 5:23 AM EDT (5/13)
Length of Visible Light 14h 55m
Length of Day
13h 58m
Waxing Gibbous, 98% of the Moon is Illuminated
May 13
Waxing Gibbous
May 14
Full
May 21
Last Quarter
May 28
New
Jun 5
First Quarter

Hourly Weather History & Observations

Time (EDT) Temp. Heat Index Dew Point Humidity Pressure Visibility Wind Dir Wind Speed Gust Speed Precip Events Conditions
1:35 AM 71.2 °F - 68.9 °F 92% 30.13 in 10.0 mi Calm Calm - N/A   Clear
2:00 AM 71.1 °F - 68.9 °F 93% 30.12 in 10.0 mi South 3.5 mph - N/A   Clear
2:40 AM 70.3 °F - 68.9 °F 95% 30.12 in 10.0 mi South 4.6 mph - N/A   Clear
2:55 AM 70.2 °F - 68.9 °F 96% 30.12 in 10.0 mi South 3.5 mph - N/A   Clear
3:10 AM 70.3 °F - 69.1 °F 96% 30.12 in 7.0 mi Calm Calm - N/A   Clear
3:35 AM 70.2 °F - 69.3 °F 97% 30.12 in 7.0 mi Calm Calm - N/A   Clear
3:55 AM 69.8 °F - 68.9 °F 97% 30.12 in 7.0 mi Calm Calm - N/A   Clear
4:15 AM 69.1 °F - 68.4 °F 98% 30.12 in 5.0 mi Calm Calm - N/A   Clear
4:35 AM 69.4 °F - 69.1 °F 99% 30.12 in 7.0 mi Calm Calm - N/A   Clear
4:55 AM 68.7 °F - 68.2 °F 98% 30.12 in 5.0 mi Calm Calm - N/A   Clear
5:15 AM 69.1 °F - 68.7 °F 99% 30.13 in 5.0 mi Calm Calm - N/A   Clear
5:35 AM 68.4 °F - 68.0 °F 99% 30.13 in 7.0 mi Calm Calm - N/A   Clear
5:55 AM 68.5 °F - 68.2 °F 99% 30.13 in 5.0 mi Calm Calm - N/A   Scattered Clouds
6:15 AM 68.0 °F - 68.0 °F 100% 30.13 in 3.0 mi Calm Calm - N/A   Mostly Cloudy
6:35 AM 68.0 °F - 67.8 °F 99% 30.14 in 4.0 mi South 3.5 mph - N/A   Scattered Clouds
7:00 AM 68.0 °F - 68.0 °F 100% 30.15 in 3.0 mi South 3.5 mph - N/A   Clear
7:15 AM 68.7 °F - 68.4 °F 99% 30.15 in 4.0 mi South 3.5 mph - N/A   Clear
7:35 AM 69.4 °F - 69.1 °F 99% 30.15 in 5.0 mi South 3.5 mph - N/A   Clear
7:55 AM 70.3 °F - 69.6 °F 98% 30.16 in 7.0 mi Calm Calm - N/A   Clear
9:15 AM 76.5 °F - 64.8 °F 67% 30.17 in 10.0 mi SW 4.6 mph - N/A   Clear
9:35 AM 78.4 °F - 64.9 °F 63% 30.17 in 10.0 mi SW 8.1 mph - N/A   Clear
9:55 AM 79.7 °F - 64.0 °F 59% 30.17 in 10.0 mi SW 5.8 mph - N/A   Clear
10:15 AM 80.6 °F 82.2 °F 64.0 °F 57% 30.17 in 10.0 mi SSW 5.8 mph - N/A   Clear
11:55 AM 85.6 °F 86.8 °F 63.9 °F 48% 30.16 in 10.0 mi SSW 9.2 mph - N/A   Clear
12:35 PM 86.5 °F 87.0 °F 62.4 °F 44% 30.16 in 10.0 mi SW 4.6 mph - N/A   Clear
1:15 PM 88.2 °F 88.4 °F 61.9 °F 41% 30.15 in 10.0 mi WSW 5.8 mph - N/A   Clear
1:35 PM 88.0 °F 88.1 °F 61.5 °F 41% 30.14 in 10.0 mi Calm Calm - N/A   Clear
1:55 PM 89.2 °F 88.7 °F 59.5 °F 37% 30.13 in 10.0 mi SSW 5.8 mph - N/A   Scattered Clouds
2:15 PM 89.6 °F 88.9 °F 59.0 °F 36% 30.13 in 10.0 mi South 9.2 mph - N/A   Scattered Clouds
2:35 PM 90.3 °F 90.2 °F 60.6 °F 37% 30.13 in 10.0 mi South 8.1 mph - N/A   Scattered Clouds
2:55 PM 89.4 °F 89.8 °F 61.9 °F 40% 30.12 in 10.0 mi ESE 4.6 mph - N/A   Clear
3:15 PM 90.0 °F 90.0 °F 61.0 °F 38% 30.12 in 10.0 mi ESE 5.8 mph - N/A   Scattered Clouds
3:35 PM 89.8 °F 89.7 °F 61.3 °F 38% 30.11 in 10.0 mi SSE 5.8 mph - 0.03 in   Scattered Clouds
3:55 PM 89.6 °F 89.2 °F 60.1 °F 37% 30.10 in 10.0 mi SSE 8.1 mph - 0.08 in   Scattered Clouds
4:15 PM 89.8 °F 89.1 °F 59.4 °F 36% 30.10 in 10.0 mi SE 9.2 mph - 0.03 in   Scattered Clouds
4:35 PM 90.0 °F 88.6 °F 57.4 °F 33% 30.10 in 10.0 mi SE 5.8 mph - 0.03 in   Clear
4:55 PM 90.1 °F 88.8 °F 57.6 °F 33% 30.09 in 10.0 mi SSE 6.9 mph - 0.03 in   Clear
5:15 PM 89.8 °F 88.6 °F 58.1 °F 34% 30.10 in 10.0 mi SSE 8.1 mph - N/A   Clear
5:35 PM 89.8 °F 89.1 °F 59.2 °F 36% 30.09 in 10.0 mi SSE 4.6 mph - 0.01 in   Clear
5:55 PM 89.6 °F 89.5 °F 60.6 °F 38% 30.09 in 10.0 mi South 6.9 mph - 0.01 in   Clear
6:15 PM 89.2 °F 89.3 °F 61.0 °F 39% 30.08 in 10.0 mi SSE 5.8 mph - 0.02 in   Clear
6:35 PM 88.7 °F 89.1 °F 62.4 °F 41% 30.08 in 10.0 mi SSE 5.8 mph - 0.03 in   Clear
6:55 PM 88.3 °F 88.9 °F 62.4 °F 42% 30.09 in 10.0 mi South 6.9 mph - 0.03 in   Clear
7:15 PM 87.1 °F 88.0 °F 63.5 °F 45% 30.09 in 10.0 mi South 3.5 mph - N/A   Clear
7:35 PM 84.9 °F 86.6 °F 65.1 °F 51% 30.09 in 10.0 mi Calm Calm - N/A   Clear
7:55 PM 83.1 °F 85.0 °F 65.7 °F 55% 30.10 in 10.0 mi Calm Calm - N/A   Clear
8:15 PM 82.4 °F 84.2 °F 65.1 °F 56% 30.10 in 10.0 mi Calm Calm - N/A   Clear
8:35 PM 81.5 °F 83.4 °F 65.5 °F 58% 30.10 in 10.0 mi Calm Calm - N/A   Clear
8:55 PM 80.1 °F 82.1 °F 66.0 °F 62% 30.11 in 10.0 mi South 3.5 mph - N/A   Clear
9:15 PM 78.4 °F - 67.3 °F 68% 30.12 in 10.0 mi SSE 4.6 mph - N/A   Clear
9:35 PM 78.6 °F - 66.7 °F 67% 30.13 in 10.0 mi South 6.9 mph - N/A   Clear
9:55 PM 79.0 °F - 66.7 °F 66% 30.13 in 10.0 mi South 6.9 mph - N/A   Scattered Clouds
10:15 PM 78.8 °F - 66.6 °F 66% 30.14 in 10.0 mi South 5.8 mph - N/A   Scattered Clouds
10:35 PM 77.7 °F - 66.6 °F 68% 30.15 in 10.0 mi South 4.6 mph - N/A   Clear
10:55 PM 77.4 °F - 65.5 °F 67% 30.15 in 10.0 mi SSE 6.9 mph - N/A   Clear
11:15 PM 77.4 °F - 64.8 °F 65% 30.15 in 10.0 mi South 6.9 mph - N/A   Clear
11:35 PM 76.8 °F - 64.6 °F 66% 30.16 in 10.0 mi SSE 4.6 mph - N/A   Clear
11:55 PM 75.9 °F - 64.8 °F 68% 30.16 in 10.0 mi South 4.6 mph - N/A   Clear